Showing default

OPS 9381 (GGTS), 2207

Orbit data source: Space-Track

OPS 9381 (GGTS), 2207 is a payload satellite owned by USAF SSD (US) in GEO that was launched on Thu, 16 Jun 1966 UTC via a TITAN IIIC launch vehicle from the Air Force Eastern Test Range (AFETR). Payloads include a variety of satellites, spacecraft, and rockets equipped with specific instruments for various scientific and technological missions. These include communications satellites like Starlink; space stations such as the ISS; scientific satellites like the Hubble; Earth observation satellites from companies like Planet Labs, Umbra, and HawkEye 360; GPS; miniature CubeSats for education and research; and military/defense satellites.

Loading next visibility...
OPS 9381 (GGTS) details
Identifier
2207, 1966-053A
Orbit
GEO
Last TLE update22 hours ago
Origin
Flag of USUSAF SSD (US)
ManufacturerGE/MSVD
MissionNon-operational Defense Technology
Bus & MotorGGTS, Unknown motor
Mass47 kg wet, 47 kg dry
Launch date (UTC)
1966-06-16 (59 years ago)
Launch vehicle
TITAN IIIC
Launch site
Air Force Eastern Test Range (AFETR)
Object type
Payload
Rocket body
Debris
Shape & HBRPoly + 2 Rod, 32 m
Radar Cross Section0.926 m², Medium (>0.1 m² and < 1m²)

Expand to show TLE details & history

TLE from 22 hours ago
0 OPS 9381 (GGTS)
1 02207U 66053A   24355.65422990 -.00000057  00000-0  00000-0 0  9990
2 02207   7.6451  48.2982 0030645 221.0895 202.7568  1.08006031230097
Epoch: 2024-12-20T15:42Z
Definitive object data (Epoch: 2024-12-20T15:42:05.463Z)
Latitude6.87321°
Longitude146.57078°
Altitude33,861.644 km
Speed3.143 km/s
True Right ascension07h 27m 14s
True Declination6° 51' 58"
Sunlit
Object was in daylight at TLE epoch
Visualization TLE readout
Latitude6.34069°
Longitude138.62731°
Altitude33,867.151 km
Speed3.143 km/s
Apparent Right ascension06h 27m 19s
Apparent Declination0° 31' 58"
Sunlit
Object is in daylight
Visualization observer readout
Local Sidereal Time12:27:49
Azimuth270.489° WNW
Elevation0.246°
Doppler factor1
Orbital elements
Apogee altitude33,872.911 km
Perigee altitude33,626.966 km
Semi-major axis40,128.076 km
Eccentricity0.0030645
Inclination7.6451°
RAAN48.2982°
Arg. of periapsis221.0895°
True anomaly202.62144°
Mean anomaly202.7568°
Eccentric anomaly202.68907°
Mean motion0.27 °/min
BSTARUnknown
Orbital period1333.31 mins
Loading historical data...
2207 neighbors
Authenticating...
Loading maneuver chart data...
Loading historical data...
Loading historical data...
Loading historical data...
Loading historical data...
Loading historical data...
Loading historical data...
Loading historical data...

OPS 9381 (GGTS) Visibility forecast

Observer location: undefined°, undefined

Span
Click to sort rows by Start time (UTC) header in descending order
Start Az.
Max El. time (UTC)
Max El. Az.
Max El.
End time (UTC)
End Az.
394 mins2024-12-22 06:51:51.927Z249.083° W2024-12-22 13:25:51.927Z252.231° W21.234°2024-12-22 13:25:51.927Z252.231° W
|